Volver al catálogo

COSMOS 2585

ActivoNavegaciónPO
NORAD 63288·PAYLOAD·🇷🇺 Russia

Lanzado Mar 16, 2025 desde Plesetsk Cosmodrome

Loading…

Próximos Pases (próximas 24 horas)

TLE

ActualizadoSource: Space-Track

Época: Sep 14, 2026, 04:05 UTC

1 63288U 25054A   26257.17041969  .00000026  00000-0  11962-3 0  9992
2 63288  82.4974  23.2404 0024490 198.9862 161.0307 12.42870846 67913

Sigue COSMOS 2585 en tiempo real con AllMySat

Download on the App Store